owner,sensor,date,latitude,longitude,vertical_datum,sea_water_temperature,qcFlag
Chevron,ioos:station:wmo:42934:1,2021-04-04T19:00:00Z,27.5608,-90.1031,11.0,24.2,11111222
Chevron,ioos:station:wmo:42934:1,2021-04-04T19:10:00Z,27.5609,-90.1031,11.0,24.2,11111222
Chevron,ioos:station:wmo:42934:1,2021-04-04T19:20:00Z,27.5609,-90.1032,11.0,24.2,11111222
Chevron,ioos:station:wmo:42934:1,2021-04-04T19:30:00Z,27.5609,-90.1032,11.0,24.2,11111222
Chevron,ioos:station:wmo:42934:1,2021-04-04T19:40:00Z,27.5609,-90.1032,11.0,24.9,11111222
Chevron,ioos:station:wmo:42934:1,2021-04-04T19:50:00Z,27.5609,-90.1032,11.0,24.3,11111222
Chevron,ioos:station:wmo:42934:1,2021-04-04T20:00:00Z,27.5609,-90.1032,11.0,24.3,11111222
Chevron,ioos:station:wmo:42934:1,2021-04-04T20:10:00Z,27.5609,-90.1032,11.0,24.3,11111222
Chevron,ioos:station:wmo:42934:1,2021-04-04T20:20:00Z,27.5609,-90.1032,11.0,24.3,11111222
Chevron,ioos:station:wmo:42934:1,2021-04-04T20:30:00Z,27.5609,-90.1032,11.0,24.3,11111222
Chevron,ioos:station:wmo:42934:1,2021-04-04T20:40:00Z,27.5609,-90.1032,11.0,24.3,11111222
Chevron,ioos:station:wmo:42934:1,2021-04-04T20:50:00Z,27.5609,-90.1032,11.0,24.3,11111222
Chevron,ioos:station:wmo:42934:1,2021-04-04T21:00:00Z,27.5609,-90.1032,11.0,24.3,11111222
Chevron,ioos:station:wmo:42934:1,2021-04-04T21:10:00Z,27.5609,-90.1032,11.0,24.3,11111222
Chevron,ioos:station:wmo:42934:1,2021-04-04T21:20:00Z,27.5609,-90.1032,11.0,24.3,11111222
Chevron,ioos:station:wmo:42934:1,2021-04-04T21:30:00Z,27.5609,-90.1032,11.0,24.3,11111222
Chevron,ioos:station:wmo:42934:1,2021-04-04T21:40:00Z,27.5609,-90.1032,11.0,24.3,11111222
Chevron,ioos:station:wmo:42934:1,2021-04-04T21:50:00Z,27.5609,-90.1032,11.0,24.3,11111222
Chevron,ioos:station:wmo:42934:1,2021-04-04T22:00:00Z,27.5609,-90.1032,11.0,24.3,11111222
Chevron,ioos:station:wmo:42934:1,2021-04-04T22:10:00Z,27.5609,-90.1032,11.0,24.2,11111222
Chevron,ioos:station:wmo:42934:1,2021-04-04T22:20:00Z,27.5605,-90.1036,11.0,24.1,11111222
Chevron,ioos:station:wmo:42934:1,2021-04-04T22:30:00Z,27.5604,-90.1039,11.0,24.2,11111222
Chevron,ioos:station:wmo:42934:1,2021-04-04T22:40:00Z,27.5604,-90.1038,11.0,24.2,11111222
Chevron,ioos:station:wmo:42934:1,2021-04-04T22:50:00Z,27.5604,-90.1038,11.0,24.2,11111222
Chevron,ioos:station:wmo:42934:1,2021-04-04T23:00:00Z,27.5604,-90.1038,11.0,24.2,11111222
Chevron,ioos:station:wmo:42934:1,2021-04-04T23:10:00Z,27.5607,-90.1039,11.0,24.2,11111222
Chevron,ioos:station:wmo:42934:1,2021-04-04T23:20:00Z,27.5606,-90.1039,11.0,24.2,11111222
Chevron,ioos:station:wmo:42934:1,2021-04-04T23:30:00Z,27.5606,-90.1039,11.0,24.2,11111222
Chevron,ioos:station:wmo:42934:1,2021-04-04T23:40:00Z,27.5606,-90.1039,11.0,24.1,11111222
Chevron,ioos:station:wmo:42934:1,2021-04-04T23:50:00Z,27.5606,-90.1039,11.0,24.1,11111222
Chevron,ioos:station:wmo:42934:1,2021-04-05T00:00:00Z,27.5606,-90.1039,11.0,24.1,11111222
Chevron,ioos:station:wmo:42934:1,2021-04-05T00:10:00Z,27.5606,-90.1039,11.0,24.1,11111222
Chevron,ioos:station:wmo:42934:1,2021-04-05T00:20:00Z,27.5606,-90.1039,11.0,24.1,11111222
Chevron,ioos:station:wmo:42934:1,2021-04-05T00:30:00Z,27.5606,-90.1039,11.0,24.1,11111222
Chevron,ioos:station:wmo:42934:1,2021-04-05T00:40:00Z,27.5606,-90.1039,11.0,24.1,11111222
Chevron,ioos:station:wmo:42934:1,2021-04-05T00:50:00Z,27.5606,-90.1038,11.0,24.0,11111222
Chevron,ioos:station:wmo:42934:1,2021-04-05T01:00:00Z,27.5606,-90.1039,11.0,24.0,11111222
Chevron,ioos:station:wmo:42934:1,2021-04-05T01:10:00Z,27.5606,-90.1039,11.0,24.1,11111222
Chevron,ioos:station:wmo:42934:1,2021-04-05T01:20:00Z,27.5606,-90.1039,11.0,24.0,11111222
Chevron,ioos:station:wmo:42934:1,2021-04-05T01:30:00Z,27.5606,-90.1039,11.0,24.0,11111222
Chevron,ioos:station:wmo:42934:1,2021-04-05T01:40:00Z,27.5606,-90.1039,11.0,24.0,11111222
Chevron,ioos:station:wmo:42934:1,2021-04-05T01:50:00Z,27.5606,-90.1039,11.0,24.0,11111222
Chevron,ioos:station:wmo:42934:1,2021-04-05T02:00:00Z,27.5606,-90.1039,11.0,23.9,11111222
Chevron,ioos:station:wmo:42934:1,2021-04-05T02:10:00Z,27.5606,-90.1039,11.0,23.9,11111222
Chevron,ioos:station:wmo:42934:1,2021-04-05T02:20:00Z,27.5606,-90.1039,11.0,23.9,11111222
Chevron,ioos:station:wmo:42934:1,2021-04-05T02:30:00Z,27.5606,-90.1039,11.0,23.9,11111222
Chevron,ioos:station:wmo:42934:1,2021-04-05T02:40:00Z,27.5606,-90.1039,11.0,23.9,11111222
Chevron,ioos:station:wmo:42934:1,2021-04-05T02:50:00Z,27.5606,-90.1039,11.0,23.9,11111222
Chevron,ioos:station:wmo:42934:1,2021-04-05T03:00:00Z,27.5606,-90.1039,11.0,23.8,11111222
Chevron,ioos:station:wmo:42934:1,2021-04-05T03:10:00Z,27.5606,-90.1039,11.0,23.8,11111222
Chevron,ioos:station:wmo:42934:1,2021-04-05T03:20:00Z,27.5606,-90.1039,11.0,23.9,11111222
Chevron,ioos:station:wmo:42934:1,2021-04-05T03:30:00Z,27.5606,-90.1039,11.0,23.8,11111222
Chevron,ioos:station:wmo:42934:1,2021-04-05T03:40:00Z,27.5606,-90.1039,11.0,23.8,11111222
Chevron,ioos:station:wmo:42934:1,2021-04-05T03:50:00Z,27.5601,-90.1039,11.0,23.7,11111222
Chevron,ioos:station:wmo:42934:1,2021-04-05T04:00:00Z,27.5601,-90.1039,11.0,23.8,11111222
Chevron,ioos:station:wmo:42934:1,2021-04-05T04:10:00Z,27.5601,-90.1039,11.0,23.7,11111222
Chevron,ioos:station:wmo:42934:1,2021-04-05T04:20:00Z,27.5601,-90.1039,11.0,23.7,11111222
Chevron,ioos:station:wmo:42934:1,2021-04-05T04:30:00Z,27.5602,-90.1039,11.0,23.7,11111222
Chevron,ioos:station:wmo:42934:1,2021-04-05T04:40:00Z,27.5601,-90.1039,11.0,23.7,11111222
Chevron,ioos:station:wmo:42934:1,2021-04-05T04:50:00Z,27.5601,-90.1039,11.0,23.7,11111222
Chevron,ioos:station:wmo:42934:1,2021-04-05T05:00:00Z,27.5601,-90.1039,11.0,23.7,11111222
Chevron,ioos:station:wmo:42934:1,2021-04-05T05:10:00Z,27.5601,-90.1039,11.0,23.7,11111222
Chevron,ioos:station:wmo:42934:1,2021-04-05T05:20:00Z,27.5601,-90.1039,11.0,23.7,11111222
Chevron,ioos:station:wmo:42934:1,2021-04-05T05:30:00Z,27.5601,-90.1039,11.0,23.8,11111222
Chevron,ioos:station:wmo:42934:1,2021-04-05T05:40:00Z,27.5602,-90.1039,11.0,23.7,11111222
Chevron,ioos:station:wmo:42934:1,2021-04-05T05:50:00Z,27.5601,-90.1039,11.0,23.7,11111222
Chevron,ioos:station:wmo:42934:1,2021-04-05T06:00:00Z,27.5601,-90.1039,11.0,23.8,11111222
Chevron,ioos:station:wmo:42934:1,2021-04-05T06:10:00Z,27.5601,-90.1039,11.0,23.7,11111222
Chevron,ioos:station:wmo:42934:1,2021-04-05T06:20:00Z,27.5601,-90.1039,11.0,23.7,11111222
Chevron,ioos:station:wmo:42934:1,2021-04-05T06:30:00Z,27.5602,-90.1039,11.0,23.6,11111222
Chevron,ioos:station:wmo:42934:1,2021-04-05T06:40:00Z,27.5602,-90.1039,11.0,23.7,11111222
Chevron,ioos:station:wmo:42934:1,2021-04-05T06:50:00Z,27.5601,-90.1039,11.0,23.7,11111222
Chevron,ioos:station:wmo:42934:1,2021-04-05T07:00:00Z,27.5601,-90.1039,11.0,23.6,11111222
Chevron,ioos:station:wmo:42934:1,2021-04-05T07:10:00Z,27.5602,-90.1039,11.0,23.7,11111222
Chevron,ioos:station:wmo:42934:1,2021-04-05T07:20:00Z,27.5602,-90.1039,11.0,23.7,11111222
Chevron,ioos:station:wmo:42934:1,2021-04-05T07:30:00Z,27.5601,-90.1039,11.0,23.6,11111222
Chevron,ioos:station:wmo:42934:1,2021-04-05T07:40:00Z,27.5601,-90.1039,11.0,23.6,11111222
Chevron,ioos:station:wmo:42934:1,2021-04-05T07:50:00Z,27.5601,-90.1039,11.0,23.6,11111222
Chevron,ioos:station:wmo:42934:1,2021-04-05T08:00:00Z,27.5601,-90.1039,11.0,23.6,11111222
Chevron,ioos:station:wmo:42934:1,2021-04-05T08:10:00Z,27.5603,-90.1040,11.0,23.6,11111222
Chevron,ioos:station:wmo:42934:1,2021-04-05T08:20:00Z,27.5604,-90.1041,11.0,23.6,11111222
Chevron,ioos:station:wmo:42934:1,2021-04-05T08:30:00Z,27.5604,-90.1041,11.0,23.6,11111222
Chevron,ioos:station:wmo:42934:1,2021-04-05T08:40:00Z,27.5604,-90.1041,11.0,23.6,11111222
Chevron,ioos:station:wmo:42934:1,2021-04-05T08:50:00Z,27.5604,-90.1041,11.0,23.6,11111222
Chevron,ioos:station:wmo:42934:1,2021-04-05T09:00:00Z,27.5604,-90.1041,11.0,23.6,11111222
Chevron,ioos:station:wmo:42934:1,2021-04-05T09:10:00Z,27.5605,-90.1042,11.0,23.6,11111222
Chevron,ioos:station:wmo:42934:1,2021-04-05T09:20:00Z,27.5607,-90.1042,11.0,23.6,11111222
Chevron,ioos:station:wmo:42934:1,2021-04-05T09:30:00Z,27.5606,-90.1042,11.0,23.6,11111222
Chevron,ioos:station:wmo:42934:1,2021-04-05T09:40:00Z,27.5607,-90.1041,11.0,23.6,11111222
Chevron,ioos:station:wmo:42934:1,2021-04-05T09:50:00Z,27.5606,-90.1042,11.0,23.6,11111222
Chevron,ioos:station:wmo:42934:1,2021-04-05T10:00:00Z,27.5606,-90.1042,11.0,23.6,11111222
Chevron,ioos:station:wmo:42934:1,2021-04-05T10:10:00Z,27.5606,-90.1042,11.0,23.6,11111222
Chevron,ioos:station:wmo:42934:1,2021-04-05T10:20:00Z,27.5607,-90.1042,11.0,23.6,11111222
Chevron,ioos:station:wmo:42934:1,2021-04-05T10:30:00Z,27.5606,-90.1042,11.0,23.6,11111222
Chevron,ioos:station:wmo:42934:1,2021-04-05T10:40:00Z,27.5606,-90.1042,11.0,23.6,11111222
Chevron,ioos:station:wmo:42934:1,2021-04-05T10:50:00Z,27.5606,-90.1042,11.0,23.6,11111222
Chevron,ioos:station:wmo:42934:1,2021-04-05T11:00:00Z,27.5606,-90.1041,11.0,23.6,11111222
Chevron,ioos:station:wmo:42934:1,2021-04-05T11:10:00Z,27.5606,-90.1041,11.0,23.6,11111222
Chevron,ioos:station:wmo:42934:1,2021-04-05T11:20:00Z,27.5606,-90.1042,11.0,23.6,11111222
Chevron,ioos:station:wmo:42934:1,2021-04-05T11:30:00Z,27.5606,-90.1042,11.0,23.6,11111222
Chevron,ioos:station:wmo:42934:1,2021-04-05T11:40:00Z,27.5606,-90.1042,11.0,23.6,11111222
Chevron,ioos:station:wmo:42934:1,2021-04-05T11:50:00Z,27.5606,-90.1042,11.0,23.6,11111222
Chevron,ioos:station:wmo:42934:1,2021-04-05T12:00:00Z,27.5606,-90.1042,11.0,23.6,11111222
Chevron,ioos:station:wmo:42934:1,2021-04-05T12:10:00Z,27.5606,-90.1042,11.0,23.6,11111222
Chevron,ioos:station:wmo:42934:1,2021-04-05T12:20:00Z,27.5602,-90.1034,11.0,23.6,11111222
Chevron,ioos:station:wmo:42934:1,2021-04-05T12:30:00Z,27.5598,-90.1026,11.0,23.6,11111222
Chevron,ioos:station:wmo:42934:1,2021-04-05T12:40:00Z,27.5595,-90.1020,11.0,23.6,11111222
Chevron,ioos:station:wmo:42934:1,2021-04-05T12:50:00Z,27.5595,-90.1020,11.0,23.6,11111222
Chevron,ioos:station:wmo:42934:1,2021-04-05T13:00:00Z,27.5595,-90.1020,11.0,23.6,11111222
Chevron,ioos:station:wmo:42934:1,2021-04-05T13:10:00Z,27.5595,-90.1020,11.0,23.6,11111222
Chevron,ioos:station:wmo:42934:1,2021-04-05T13:20:00Z,27.5596,-90.1020,11.0,23.6,11111222
Chevron,ioos:station:wmo:42934:1,2021-04-05T13:30:00Z,27.5595,-90.1020,11.0,23.6,11111222
Chevron,ioos:station:wmo:42934:1,2021-04-05T13:40:00Z,27.5595,-90.1020,11.0,23.6,11111222
Chevron,ioos:station:wmo:42934:1,2021-04-05T13:50:00Z,27.5595,-90.1020,11.0,23.6,11111222
Chevron,ioos:station:wmo:42934:1,2021-04-05T14:00:00Z,27.5595,-90.1020,11.0,23.6,11111222
Chevron,ioos:station:wmo:42934:1,2021-04-05T14:10:00Z,27.5595,-90.1020,11.0,23.6,11111222
Chevron,ioos:station:wmo:42934:1,2021-04-05T14:20:00Z,27.5595,-90.1020,11.0,23.6,11111222
Chevron,ioos:station:wmo:42934:1,2021-04-05T14:30:00Z,27.5595,-90.1020,11.0,23.6,11111222
Chevron,ioos:station:wmo:42934:1,2021-04-05T14:40:00Z,27.5595,-90.1020,11.0,23.6,11111222
Chevron,ioos:station:wmo:42934:1,2021-04-05T14:50:00Z,27.5595,-90.1020,11.0,23.6,11111222
Chevron,ioos:station:wmo:42934:1,2021-04-05T15:00:00Z,27.5595,-90.1020,11.0,23.6,11111222
Chevron,ioos:station:wmo:42934:1,2021-04-05T15:10:00Z,27.5596,-90.1020,11.0,23.7,11111222
Chevron,ioos:station:wmo:42934:1,2021-04-05T15:20:00Z,27.5595,-90.1020,11.0,23.6,11111222
Chevron,ioos:station:wmo:42934:1,2021-04-05T15:30:00Z,27.5595,-90.1020,11.0,23.6,11111222
Chevron,ioos:station:wmo:42934:1,2021-04-05T15:40:00Z,27.5595,-90.1020,11.0,23.7,11111222
Chevron,ioos:station:wmo:42934:1,2021-04-05T15:50:00Z,27.5595,-90.1020,11.0,23.7,11111222
Chevron,ioos:station:wmo:42934:1,2021-04-05T16:00:00Z,27.5595,-90.1020,11.0,23.7,11111222
Chevron,ioos:station:wmo:42934:1,2021-04-05T16:10:00Z,27.5595,-90.1020,11.0,23.7,11111222
Chevron,ioos:station:wmo:42934:1,2021-04-05T16:20:00Z,27.5595,-90.1020,11.0,23.7,11111222
Chevron,ioos:station:wmo:42934:1,2021-04-05T16:30:00Z,27.5595,-90.1020,11.0,23.7,11111222
Chevron,ioos:station:wmo:42934:1,2021-04-05T16:40:00Z,27.5595,-90.1020,11.0,23.7,11111222
Chevron,ioos:station:wmo:42934:1,2021-04-05T16:50:00Z,27.5595,-90.1020,11.0,23.7,11111222
Chevron,ioos:station:wmo:42934:1,2021-04-05T17:00:00Z,27.5594,-90.1020,11.0,23.7,11111222
Chevron,ioos:station:wmo:42934:1,2021-04-05T17:10:00Z,27.5595,-90.1020,11.0,23.7,11111222
Chevron,ioos:station:wmo:42934:1,2021-04-05T17:20:00Z,27.5595,-90.1020,11.0,23.7,11111222
Chevron,ioos:station:wmo:42934:1,2021-04-05T17:30:00Z,27.5595,-90.1020,11.0,23.8,11111222
Chevron,ioos:station:wmo:42934:1,2021-04-05T17:40:00Z,27.5595,-90.1021,11.0,23.6,11111222
Chevron,ioos:station:wmo:42934:1,2021-04-05T17:50:00Z,27.5595,-90.1020,11.0,23.7,11111222
Chevron,ioos:station:wmo:42934:1,2021-04-05T18:00:00Z,27.5596,-90.1020,11.0,23.8,11111222
Chevron,ioos:station:wmo:42934:1,2021-04-05T18:10:00Z,27.5595,-90.1020,11.0,23.7,11111222
Chevron,ioos:station:wmo:42934:1,2021-04-05T18:20:00Z,27.5595,-90.1020,11.0,23.7,11111222
Chevron,ioos:station:wmo:42934:1,2021-04-05T18:30:00Z,27.5595,-90.1020,11.0,23.7,11111222
Chevron,ioos:station:wmo:42934:1,2021-04-05T18:40:00Z,27.5595,-90.1020,11.0,23.8,11111222
Chevron,ioos:station:wmo:42934:1,2021-04-05T18:50:00Z,27.5595,-90.1020,11.0,23.7,11111222
Chevron,ioos:station:wmo:42934:1,2021-04-05T19:00:00Z,27.5595,-90.1020,11.0,23.8,11111222
Chevron,ioos:station:wmo:42934:1,2021-04-05T19:10:00Z,27.5595,-90.1020,11.0,23.8,11111222
Chevron,ioos:station:wmo:42934:1,2021-04-05T19:20:00Z,27.5599,-90.1024,11.0,23.8,11111222
Chevron,ioos:station:wmo:42934:1,2021-04-05T19:30:00Z,27.5606,-90.1029,11.0,23.8,11111222
Chevron,ioos:station:wmo:42934:1,2021-04-05T19:40:00Z,27.5610,-90.1032,11.0,23.8,11111222
Chevron,ioos:station:wmo:42934:1,2021-04-05T19:50:00Z,27.5609,-90.1032,11.0,23.8,11111222
Chevron,ioos:station:wmo:42934:1,2021-04-05T20:00:00Z,27.5610,-90.1032,11.0,23.9,11111222
Chevron,ioos:station:wmo:42934:1,2021-04-05T20:10:00Z,27.5609,-90.1032,11.0,23.9,11111222
Chevron,ioos:station:wmo:42934:1,2021-04-05T20:20:00Z,27.5609,-90.1032,11.0,23.9,11111222
Chevron,ioos:station:wmo:42934:1,2021-04-05T20:30:00Z,27.5609,-90.1032,11.0,23.9,11111222
Chevron,ioos:station:wmo:42934:1,2021-04-05T20:40:00Z,27.5609,-90.1032,11.0,23.9,11111222
Chevron,ioos:station:wmo:42934:1,2021-04-05T20:50:00Z,27.5609,-90.1032,11.0,23.9,11111222
Chevron,ioos:station:wmo:42934:1,2021-04-05T21:00:00Z,27.5609,-90.1032,11.0,23.9,11111222
Chevron,ioos:station:wmo:42934:1,2021-04-05T21:10:00Z,27.5609,-90.1032,11.0,23.8,11111222
Chevron,ioos:station:wmo:42934:1,2021-04-05T21:20:00Z,27.5609,-90.1032,11.0,23.9,11111222
Chevron,ioos:station:wmo:42934:1,2021-04-05T21:30:00Z,27.5609,-90.1032,11.0,23.8,11111222
Chevron,ioos:station:wmo:42934:1,2021-04-05T21:40:00Z,27.5609,-90.1032,11.0,23.9,11111222
Chevron,ioos:station:wmo:42934:1,2021-04-05T21:50:00Z,27.5609,-90.1032,11.0,23.9,11111222
Chevron,ioos:station:wmo:42934:1,2021-04-05T22:00:00Z,27.5609,-90.1032,11.0,23.9,11111222
Chevron,ioos:station:wmo:42934:1,2021-04-05T22:10:00Z,27.5609,-90.1032,11.0,23.8,11111222
Chevron,ioos:station:wmo:42934:1,2021-04-05T22:20:00Z,27.5609,-90.1032,11.0,23.8,11111222
Chevron,ioos:station:wmo:42934:1,2021-04-05T22:30:00Z,27.5612,-90.1033,11.0,23.8,11111222
Chevron,ioos:station:wmo:42934:1,2021-04-05T22:40:00Z,27.5612,-90.1033,11.0,23.8,11111222
Chevron,ioos:station:wmo:42934:1,2021-04-05T22:50:00Z,27.5611,-90.1032,11.0,23.8,11111222
Chevron,ioos:station:wmo:42934:1,2021-04-05T23:00:00Z,27.5611,-90.1032,11.0,23.8,11111222
Chevron,ioos:station:wmo:42934:1,2021-04-05T23:10:00Z,27.5612,-90.1033,11.0,23.8,11111222
Chevron,ioos:station:wmo:42934:1,2021-04-05T23:20:00Z,27.5611,-90.1032,11.0,23.8,11111222
Chevron,ioos:station:wmo:42934:1,2021-04-05T23:30:00Z,27.5612,-90.1032,11.0,23.7,11111222
Chevron,ioos:station:wmo:42934:1,2021-04-05T23:40:00Z,27.5612,-90.1032,11.0,23.7,11111222
Chevron,ioos:station:wmo:42934:1,2021-04-05T23:50:00Z,27.5612,-90.1032,11.0,23.6,11111222
Chevron,ioos:station:wmo:42934:1,2021-04-06T00:00:00Z,27.5611,-90.1032,11.0,23.6,11111222
Chevron,ioos:station:wmo:42934:1,2021-04-06T00:10:00Z,27.5612,-90.1033,11.0,23.6,11111222
Chevron,ioos:station:wmo:42934:1,2021-04-06T00:20:00Z,27.5611,-90.1033,11.0,23.5,11111222
Chevron,ioos:station:wmo:42934:1,2021-04-06T00:30:00Z,27.5612,-90.1033,11.0,23.3,11111222
Chevron,ioos:station:wmo:42934:1,2021-04-06T00:40:00Z,27.5612,-90.1033,11.0,23.3,11111222
Chevron,ioos:station:wmo:42934:1,2021-04-06T00:50:00Z,27.5612,-90.1032,11.0,23.3,11111222
Chevron,ioos:station:wmo:42934:1,2021-04-06T01:00:00Z,27.5612,-90.1033,11.0,23.3,11111222
Chevron,ioos:station:wmo:42934:1,2021-04-06T01:10:00Z,27.5611,-90.1032,11.0,23.3,11111222
Chevron,ioos:station:wmo:42934:1,2021-04-06T01:20:00Z,27.5612,-90.1032,11.0,23.2,11111222
Chevron,ioos:station:wmo:42934:1,2021-04-06T01:30:00Z,27.5612,-90.1033,11.0,23.4,11111222
Chevron,ioos:station:wmo:42934:1,2021-04-06T01:40:00Z,27.5612,-90.1033,11.0,23.3,11111222
Chevron,ioos:station:wmo:42934:1,2021-04-06T01:50:00Z,27.5612,-90.1033,11.0,23.5,11111222
Chevron,ioos:station:wmo:42934:1,2021-04-06T02:00:00Z,27.5612,-90.1033,11.0,23.7,11111222
Chevron,ioos:station:wmo:42934:1,2021-04-06T02:10:00Z,27.5611,-90.1032,11.0,23.8,11111222
Chevron,ioos:station:wmo:42934:1,2021-04-06T02:20:00Z,27.5611,-90.1033,11.0,23.7,11111222
Chevron,ioos:station:wmo:42934:1,2021-04-06T02:30:00Z,27.5612,-90.1032,11.0,23.9,11111222
Chevron,ioos:station:wmo:42934:1,2021-04-06T02:40:00Z,27.5612,-90.1032,11.0,24.0,11111222
Chevron,ioos:station:wmo:42934:1,2021-04-06T02:50:00Z,27.5611,-90.1032,11.0,24.0,11111222
Chevron,ioos:station:wmo:42934:1,2021-04-06T03:00:00Z,27.5611,-90.1032,11.0,24.0,11111222
Chevron,ioos:station:wmo:42934:1,2021-04-06T03:10:00Z,27.5612,-90.1032,11.0,24.0,11111222
Chevron,ioos:station:wmo:42934:1,2021-04-06T03:20:00Z,27.5612,-90.1033,11.0,24.0,11111222
Chevron,ioos:station:wmo:42934:1,2021-04-06T03:30:00Z,27.5611,-90.1032,11.0,24.1,11111222
Chevron,ioos:station:wmo:42934:1,2021-04-06T03:40:00Z,27.5611,-90.1033,11.0,24.1,11111222
Chevron,ioos:station:wmo:42934:1,2021-04-06T03:50:00Z,27.5611,-90.1032,11.0,24.1,11111222
Chevron,ioos:station:wmo:42934:1,2021-04-06T04:00:00Z,27.5612,-90.1033,11.0,24.0,11111222
Chevron,ioos:station:wmo:42934:1,2021-04-06T04:10:00Z,27.5612,-90.1033,11.0,24.0,11111222
Chevron,ioos:station:wmo:42934:1,2021-04-06T04:20:00Z,27.5612,-90.1032,11.0,24.1,11111222
Chevron,ioos:station:wmo:42934:1,2021-04-06T04:30:00Z,27.5612,-90.1032,11.0,24.1,11111222
Chevron,ioos:station:wmo:42934:1,2021-04-06T04:40:00Z,27.5612,-90.1033,11.0,24.0,11111222
Chevron,ioos:station:wmo:42934:1,2021-04-06T04:50:00Z,27.5612,-90.1032,11.0,24.1,11111222
Chevron,ioos:station:wmo:42934:1,2021-04-06T05:00:00Z,27.5612,-90.1032,11.0,24.0,11111222
Chevron,ioos:station:wmo:42934:1,2021-04-06T05:10:00Z,27.5612,-90.1032,11.0,24.0,11111222
Chevron,ioos:station:wmo:42934:1,2021-04-06T05:20:00Z,27.5611,-90.1032,11.0,24.0,11111222
Chevron,ioos:station:wmo:42934:1,2021-04-06T05:30:00Z,27.5611,-90.1032,11.0,24.0,11111222
Chevron,ioos:station:wmo:42934:1,2021-04-06T05:40:00Z,27.5611,-90.1033,11.0,24.0,11111222
Chevron,ioos:station:wmo:42934:1,2021-04-06T05:50:00Z,27.5611,-90.1032,11.0,24.1,11111222
Chevron,ioos:station:wmo:42934:1,2021-04-06T06:00:00Z,27.5612,-90.1032,11.0,24.0,11111222
Chevron,ioos:station:wmo:42934:1,2021-04-06T06:10:00Z,27.5612,-90.1032,11.0,24.0,11111222
Chevron,ioos:station:wmo:42934:1,2021-04-06T06:20:00Z,27.5611,-90.1032,11.0,24.0,11111222
Chevron,ioos:station:wmo:42934:1,2021-04-06T06:30:00Z,27.5612,-90.1032,11.0,24.0,11111222
Chevron,ioos:station:wmo:42934:1,2021-04-06T06:40:00Z,27.5612,-90.1032,11.0,24.0,11111222
Chevron,ioos:station:wmo:42934:1,2021-04-06T06:50:00Z,27.5612,-90.1032,11.0,24.0,11111222
Chevron,ioos:station:wmo:42934:1,2021-04-06T07:00:00Z,27.5611,-90.1033,11.0,24.0,11111222
Chevron,ioos:station:wmo:42934:1,2021-04-06T07:10:00Z,27.5612,-90.1032,11.0,24.0,11111222
Chevron,ioos:station:wmo:42934:1,2021-04-06T07:20:00Z,27.5612,-90.1033,11.0,24.0,11111222
Chevron,ioos:station:wmo:42934:1,2021-04-06T07:30:00Z,27.5612,-90.1032,11.0,24.0,11111222
Chevron,ioos:station:wmo:42934:1,2021-04-06T07:40:00Z,27.5612,-90.1033,11.0,24.0,11111222
Chevron,ioos:station:wmo:42934:1,2021-04-06T07:50:00Z,27.5612,-90.1033,11.0,24.0,11111222
Chevron,ioos:station:wmo:42934:1,2021-04-06T08:00:00Z,27.5611,-90.1033,11.0,24.0,11111222
Chevron,ioos:station:wmo:42934:1,2021-04-06T08:10:00Z,27.5612,-90.1033,11.0,24.0,11111222
Chevron,ioos:station:wmo:42934:1,2021-04-06T08:20:00Z,27.5612,-90.1032,11.0,24.0,11111222
Chevron,ioos:station:wmo:42934:1,2021-04-06T08:30:00Z,27.5612,-90.1033,11.0,24.0,11111222
Chevron,ioos:station:wmo:42934:1,2021-04-06T08:40:00Z,27.5612,-90.1032,11.0,24.0,11111222
Chevron,ioos:station:wmo:42934:1,2021-04-06T08:50:00Z,27.5612,-90.1032,11.0,24.0,11111222
Chevron,ioos:station:wmo:42934:1,2021-04-06T09:00:00Z,27.5612,-90.1033,11.0,24.0,11111222
Chevron,ioos:station:wmo:42934:1,2021-04-06T09:10:00Z,27.5612,-90.1033,11.0,24.0,11111222
Chevron,ioos:station:wmo:42934:1,2021-04-06T09:20:00Z,27.5612,-90.1032,11.0,23.9,11111222
Chevron,ioos:station:wmo:42934:1,2021-04-06T09:30:00Z,27.5612,-90.1033,11.0,23.9,11111222
Chevron,ioos:station:wmo:42934:1,2021-04-06T09:40:00Z,27.5611,-90.1033,11.0,24.0,11111222
Chevron,ioos:station:wmo:42934:1,2021-04-06T09:50:00Z,27.5611,-90.1032,11.0,24.0,11111222
Chevron,ioos:station:wmo:42934:1,2021-04-06T10:00:00Z,27.5611,-90.1033,11.0,23.9,11111222
Chevron,ioos:station:wmo:42934:1,2021-04-06T10:10:00Z,27.5612,-90.1033,11.0,24.0,11111222
Chevron,ioos:station:wmo:42934:1,2021-04-06T10:20:00Z,27.5612,-90.1033,11.0,23.9,11111222
Chevron,ioos:station:wmo:42934:1,2021-04-06T10:30:00Z,27.5612,-90.1033,11.0,24.0,11111222
Chevron,ioos:station:wmo:42934:1,2021-04-06T10:40:00Z,27.5611,-90.1032,11.0,24.0,11111222
Chevron,ioos:station:wmo:42934:1,2021-04-06T10:50:00Z,27.5611,-90.1033,11.0,23.9,11111222
Chevron,ioos:station:wmo:42934:1,2021-04-06T11:00:00Z,27.5611,-90.1032,11.0,23.9,11111222
Chevron,ioos:station:wmo:42934:1,2021-04-06T11:10:00Z,27.5612,-90.1032,11.0,23.9,11111222
Chevron,ioos:station:wmo:42934:1,2021-04-06T11:20:00Z,27.5612,-90.1032,11.0,23.9,11111222
Chevron,ioos:station:wmo:42934:1,2021-04-06T11:30:00Z,27.5612,-90.1033,11.0,23.9,11111222
Chevron,ioos:station:wmo:42934:1,2021-04-06T11:40:00Z,27.5612,-90.1032,11.0,23.9,11111222
Chevron,ioos:station:wmo:42934:1,2021-04-06T11:50:00Z,27.5612,-90.1033,11.0,24.0,11111222
Chevron,ioos:station:wmo:42934:1,2021-04-06T12:00:00Z,27.5612,-90.1032,11.0,23.9,11111222
Chevron,ioos:station:wmo:42934:1,2021-04-06T12:10:00Z,27.5611,-90.1033,11.0,23.9,11111222
Chevron,ioos:station:wmo:42934:1,2021-04-06T12:20:00Z,27.5611,-90.1032,11.0,23.9,11111222
Chevron,ioos:station:wmo:42934:1,2021-04-06T12:30:00Z,27.5611,-90.1032,11.0,23.9,11111222
Chevron,ioos:station:wmo:42934:1,2021-04-06T12:40:00Z,27.5612,-90.1032,11.0,23.9,11111222
Chevron,ioos:station:wmo:42934:1,2021-04-06T12:50:00Z,27.5612,-90.1033,11.0,23.8,11111222
Chevron,ioos:station:wmo:42934:1,2021-04-06T13:00:00Z,27.5612,-90.1032,11.0,23.9,11111222
Chevron,ioos:station:wmo:42934:1,2021-04-06T13:10:00Z,27.5612,-90.1033,11.0,23.8,11111222
Chevron,ioos:station:wmo:42934:1,2021-04-06T13:20:00Z,27.5612,-90.1033,11.0,23.9,11111222
Chevron,ioos:station:wmo:42934:1,2021-04-06T13:30:00Z,27.5612,-90.1032,11.0,23.9,11111222
Chevron,ioos:station:wmo:42934:1,2021-04-06T13:40:00Z,27.5612,-90.1032,11.0,23.9,11111222
Chevron,ioos:station:wmo:42934:1,2021-04-06T13:50:00Z,27.5612,-90.1033,11.0,23.9,11111222
Chevron,ioos:station:wmo:42934:1,2021-04-06T14:00:00Z,27.5611,-90.1032,11.0,23.9,11111222
Chevron,ioos:station:wmo:42934:1,2021-04-06T14:10:00Z,27.5612,-90.1033,11.0,23.9,11111222
Chevron,ioos:station:wmo:42934:1,2021-04-06T14:20:00Z,27.5612,-90.1033,11.0,23.9,11111222
Chevron,ioos:station:wmo:42934:1,2021-04-06T14:30:00Z,27.5612,-90.1032,11.0,23.9,11111222